This is the latest recevied weather packets stored in our database for station/object S57ZT-10. If no packets are shown the sender has not sent any weather packets the latest 10 day(s).
| Time | Temp. | Humidity | Pressure | Rain* | Wind** | Luminosity | Snow |
|---|---|---|---|---|---|---|---|
| 1778143767 | 25.56° C | 37% | 1014.9 hPa | - | - | - | - |
| 1778142873 | 23.89° C | 40% | 1015.2 hPa | - | - | - | - |
| 1778141987 | 23.33° C | 41% | 1015.1 hPa | - | - | - | - |
| 1778141099 | 22.78° C | 42% | 1015.1 hPa | - | - | - | - |
| 1778141066 | 22.78° C | 42% | 1015.1 hPa | - | - | - | - |
| 1778139262 | 22.78° C | 42% | 1015 hPa | - | - | - | - |
| 1778138362 | 22.78° C | 42% | 1014.8 hPa | - | - | - | - |
| 1778136562 | 21.11° C | 45% | 1014.5 hPa | - | - | - | - |
| 1778134773 | 21.67° C | 45% | 1014.6 hPa | - | - | - | - |
| 1778133873 | 21.67° C | 45% | 1014.5 hPa | - | - | - | - |
| 1778132073 | 21.11° C | 45% | 1014.2 hPa | - | - | - | - |
| 1778131169 | 21.11° C | 46% | 1014.2 hPa | - | - | - | - |
| 1778129367 | 19.44° C | 50% | 1014 hPa | - | - | - | - |
| 1778128467 | 17.22° C | 53% | 1013.9 hPa | - | - | - | - |
| 1778127598 | 17.22° C | 52% | 1013.9 hPa | - | - | - | - |
| 1778127566 | 17.22° C | 52% | 1013.9 hPa | - | - | - | - |
| 1778126667 | 17.22° C | 52% | 1013.7 hPa | - | - | - | - |
| 1778125755 | 17.22° C | 51% | 1013.7 hPa | - | - | - | - |
| 1778124873 | 17.22° C | 51% | 1013.6 hPa | - | - | - | - |
| 1778123963 | 17.22° C | 51% | 1013.8 hPa | - | - | - | - |
| 1778123069 | 17.78° C | 50% | 1013.5 hPa | - | - | - | - |
| 1778122162 | 17.78° C | 49% | 1013.6 hPa | - | - | - | - |
| 1778121262 | 17.78° C | 49% | 1013.6 hPa | - | - | - | - |
| 1778120361 | 18.33° C | 48% | 1013.6 hPa | - | - | - | - |
| 1778119469 | 18.33° C | 48% | 1013.5 hPa | - | - | - | - |
* Rain since midnight (hover to see other rain measurements)
** Current wind speed in m/s (hover to see current wind gust speed)